Torna al catalogo

ARIANE 5 R/B

AttivoHEO
NORAD 33057·ROCKET BODY·🇫🇷 France

Lanciato Jun 12, 2008 da Guiana Space Centre

Loading…

Prossimi Passaggi (prossime 24 ore)

TLE

AggiornatoSource: Space-Track

Epoca: Sep 14, 2026, 04:24 UTC

1 33057U 08030C   26257.18354205  .00002164  00000-0  63022-3 0  9998
2 33057   1.7683 325.3317 7017188 348.9862   1.5419  2.61438453161555

Traccia ARIANE 5 R/B in tempo reale con AllMySat

Download on the App Store